Regional Weather Roundup
Issued by NWS

Home | Current Version | Previous Version | Graphics & Text | Print | Product List | Glossary On
Versions: 1 2 3 4 5 6 7 8 9 10 11 12 13 14 15 16 17 18 19 20 21 22 23 24 25 26 27 28 29 30 31 32 33 34 35 36 37 38 39 40 41 42 43 44 45 46 47
000
ASUS45 KSLC 010110
RWRUT

UTAH REGIONAL WEATHER ROUNDUP
NATIONAL WEATHER SERVICE SALT LAKE CITY UT
700 PM MDT TUE MAR 31 2015

UTZ001>011-023>025-010200-

NORTHERN UTAH

CITY           SKY/WX    TMP DP  RH WIND       PRES   REMARKS
BRIGHAM CITY   CLOUDY    72  13  10 W18G31    29.75R
HILL AFB       CLOUDY    70  24  18 SW9       29.75S
LOGAN          PTCLDY    68  23  18 W16G22    29.74R
OGDEN            N/A     70  24  17 W18G28    29.73S
PROVO AIRPORT  MOCLDY    72  36  26 SW10      29.78F
SALT LAKE CITY MOCLDY    75  15  10 S18G30    29.71F
VERNAL         CLOUDY    70  19  14 S14G20    29.81F
WENDOVER         N/A     72  18  13 NW15      29.75S
HEBER CITY       N/A     66  14  13 S7        29.82F
WEST JORDAN    CLEAR     73  27  17 S13G24    29.75F

$$

UTZ012>022-026-027-010200-

SOUTHERN/CENTRAL UTAH

CITY           SKY/WX    TMP DP  RH WIND       PRES   REMARKS
BLANDING         N/A     67  22  18 W8        30.01F
BRYCE CANYON     N/A     59  20  22 SW14      30.04F
CEDAR CITY       N/A     67  17  14 S17       29.92F
DELTA            N/A     73  19  12 S24G35    29.80F
HANKSVILLE       N/A     75  19  12 SW16G26   29.83F
MILFORD          N/A     71  19  14 S26G33    29.87F
MOAB/CYNLANDS  CLEAR     74  15  10 S16       29.80F
PRICE            N/A     71  17  12 W13       29.85F
ST GEORGE        N/A     82  25  12 SW21      29.80F
KANAB            N/A     72  21  15 SW15G22   29.95F

$$

REGIONAL REPORTS     COLORADO/ARIZONA

CITY           SKY/WX    TMP DP  RH WIND       PRES   REMARKS
CRAIG, CO      MOCLDY    62  19  19 SW9       29.89S
GRAND JUNCTION MOCLDY    71  22  15 SW5       29.83F
RIFLE          MOCLDY    67  22  18 W10       29.87F
MONTROSE       PTCLDY    70  12  10 SW13      29.93S
CORTEZ         CLEAR     69  19  15 SW8       29.96F
PAGE, AZ         N/A     78  19  11 W7        29.86F
GRAND CANYON     N/A     63  24  22 SW12G23   30.06S
KINGMAN          N/A     79  28  15 S17G24    29.90F
FLAGSTAFF        N/A     61  26  26 W14G24    30.10S

$$

REGIONAL REPORTS    NEVADA/IDAHO/WYOMING

CITY           SKY/WX    TMP DP  RH WIND       PRES   REMARKS
LAS VEGAS, NV  PTSUNNY   86  11   6 SW21G32   29.72F
ELY              N/A     66  11  11 MISG      29.87S
ELKO           CLOUDY    65  -1   7 W28G35    29.84S
POCATELLO, ID  CLEAR     62  25  24 W12       29.75F
BURLEY           N/A     64  32  30 W16G32    29.75R
EVANSTON, WY   MOCLDY    60  16  18 SW20G30   29.87F
ROCK SPRINGS   CLOUDY    60  19  20 W9        29.86F
KEMMERER       MOCLDY    59  12  15 SW23G29   29.87F

$$



USA.gov is the U.S. government's official web portal to all federal, state and local government web resources and services.